Latest Coastal Weather Observations for Browse Island

IDW60701

Issued at 7:25 pm WST Tuesday 22 July 2014 (issued every 10 minutes, with the page automatically refreshed every 10 minutes)

About coastal observations | Map of coastal stations | Coastal observations for WA | Marine services | Other Formats
Station Details ID: 200784 Name: BROWSE ISLAND Lat: -14.11 Lon: 123.55 Height: 3.7 m
Data from the previous 72 hours. | See also: Recent months for locations in Western Australia
Date/Time
WST
Temp

°C
Wind Pressure Rain
since 9am
mm
Weather Cloud Vis
km
Sea
Height
m
Swell
Dir
 
Speed
knots
Gust
knots
hPa Trend Height
m
Period
s
Dir
22/07:00pm 25.7 E 3 - 1014.0 - - - - - - - - -
22/06:30pm 26.0 E 8 - 1013.0 - - - - - - - - -
22/06:00pm 25.8 E 8 - 1013.3 - - - - - - - - -
22/05:30pm 26.0 E 7 - 1013.0 - - - - - - - - -
22/05:00pm 26.4 E 7 - 1013.1 - - - - - - - - -
22/04:30pm 27.0 E 8 - 1012.0 - - - - - - - - -
22/04:00pm 26.7 E 9 - 1012.6 - - - - - - - - -
22/03:30pm 27.0 E 9 - 1012.0 - - - - - - - - -
22/03:00pm 27.4 E 9 - 1012.7 - - - - - - - - -
22/02:30pm 28.0 E 9 - 1012.0 - - - - - - - - -
22/02:00pm 27.1 E 10 - 1012.6 - - - - - - - - -
22/01:30pm 28.0 E 10 - 1012.0 - - - - - - - - -
22/01:00pm 27.6 E 11 - 1013.0 - - - - - - - - -
22/12:30pm 27.0 E 10 - 1013.0 - - - - - - - - -
22/12:00pm 27.5 E 12 - 1013.9 - - - - - - - - -
22/11:30am 28.0 E 12 - 1014.0 - - - - - - - - -
22/11:00am 27.9 E 10 - 1014.7 - - - - - - - - -
22/10:30am 27.0 E 9 - 1015.0 - - - - - - - - -
22/10:00am 27.2 E 9 - 1015.3 - - - - - - - - -
22/09:30am 28.0 E 9 - 1015.0 - - - - - - - - -
22/09:00am 27.0 E 10 - 1015.7 - - - - - - - - -
22/08:30am 27.0 E 10 - 1015.0 - - - - - - - - -
22/08:00am 27.3 E 9 10 1015.5 - - - - - - - - -
22/07:30am 26.0 E 8 - 1015.0 - - - - - - - - -
22/07:00am 26.3 E 9 - 1014.9 - - - - - - - - -
22/06:30am 26.0 ENE 11 - 1014.0 - - - - - - - - -
22/06:00am 25.9 ENE 9 - 1014.3 - - - - - - - - -
22/05:30am 26.0 ENE 12 - 1013.0 - - - - - - - - -
22/05:00am 25.7 ENE 11 - 1013.5 - - - - - - - - -
22/04:30am 25.0 NE 14 - 1013.0 - - - - - - - - -
22/04:00am 25.6 NE 15 - 1013.5 - - - - - - - - -
22/03:30am 26.0 NE 13 - 1013.0 - - - - - - - - -
22/03:00am 25.7 NE 13 - 1014.0 - - - - - - - - -
22/02:30am 26.0 NE 11 - 1014.0 - - - - - - - - -
22/02:00am 25.5 NE 10 - 1014.5 - - - - - - - - -
22/01:30am 26.0 NE 11 14 1014.0 - - - - - - - - -
22/01:00am 25.7 NE 10 - 1014.6 - - - - - - - - -
22/12:30am 26.0 NE 11 - 1014.0 - - - - - - - - -
22/12:00am 25.9 NE 11 13 1014.7 - - - - - - - - -
 
Date/Time
WST
Temp

°C
Wind Pressure Rain
since 9am
mm
Weather Cloud Vis
km
Sea
Height
m
Swell
Dir
 
Speed
knots
Gust
knots
hPa Trend Height
m
Period
s
Dir
21/11:30pm 26.0 NE 10 - 1014.0 - - - - - - - - -
21/10:30pm 26.0 NE 9 - 1014.0 - - - - - - - - -
21/10:00pm 26.0 ENE 7 - 1014.7 - - - - - - - - -
21/09:30pm 26.0 ENE 8 - 1014.0 - - - - - - - - -
21/09:00pm 26.2 ENE 8 - 1014.8 - - - - - - - - -
21/08:30pm 26.0 ENE 8 - 1015.0 - - - - - - - - -
21/08:00pm 26.1 ENE 7 - 1014.9 - - - - - - - - -
21/07:30pm 26.0 ENE 7 - 1014.0 - - - - - - - - -
21/07:00pm 26.1 E 7 - 1014.4 - - - - - - - - -
21/06:30pm 26.0 E 7 - 1014.0 - - - - - - - - -
21/06:00pm 26.0 E 8 - 1013.7 - - - - - - - - -
21/05:30pm 26.0 E 7 - 1013.0 - - - - - - - - -
21/05:00pm 26.2 E 8 - 1013.4 - - - - - - - - -
21/04:30pm 26.0 E 9 - 1013.0 - - - - - - - - -
21/04:00pm 26.9 E 9 - 1012.8 - - - - - - - - -
21/03:30pm 27.0 E 9 - 1012.0 - - - - - - - - -
21/03:00pm 27.0 E 10 - 1012.7 - - - - - - - - -
21/02:30pm 27.0 E 10 - 1013.0 - - - - - - - - -
21/02:00pm 27.2 E 9 - 1013.2 - - - - - - - - -
21/01:30pm 27.0 E 9 - 1013.0 - - - - - - - - -
21/01:00pm 27.3 E 10 - 1014.0 - - - - - - - - -
21/12:30pm 27.0 E 10 - 1014.0 - - - - - - - - -
21/12:00pm 27.5 E 10 - 1014.8 - - - - - - - - -
21/11:30am 28.0 E 9 - 1015.0 - - - - - - - - -
21/11:00am 27.2 E 9 - 1015.6 - - - - - - - - -
21/10:30am 27.0 E 10 - 1016.0 - - - - - - - - -
21/10:00am 27.1 E 9 - 1016.4 - - - - - - - - -
21/09:30am 27.0 E 9 - 1016.0 - - - - - - - - -
21/09:00am 26.5 E 9 - 1016.9 - - - - - - - - -
21/08:30am 27.0 E 8 - 1017.0 - - - - - - - - -
21/08:00am 26.0 E 9 - 1016.9 - - - - - - - - -
21/07:30am 26.0 E 7 - 1016.0 - - - - - - - - -
21/07:00am 25.4 E 8 - 1016.5 - - - - - - - - -
21/06:30am 25.0 E 8 - 1016.0 - - - - - - - - -
21/06:00am 25.1 E 7 - 1015.8 - - - - - - - - -
21/05:30am 25.0 ENE 7 - 1015.0 - - - - - - - - -
21/05:00am 25.1 E 7 - 1015.2 - - - - - - - - -
21/04:30am 25.0 E 7 - 1015.0 - - - - - - - - -
21/04:00am 25.2 ENE 7 - 1014.8 - - - - - - - - -
21/03:30am 25.0 ENE 7 - 1014.0 - - - - - - - - -
21/03:00am 25.1 ENE 7 - 1014.3 - - - - - - - - -
21/02:30am 25.0 ENE 7 - 1014.0 - - - - - - - - -
21/02:00am 25.2 ENE 6 - 1014.4 - - - - - - - - -
21/01:30am 25.0 NE 8 - 1014.0 - - - - - - - - -
21/01:00am 25.1 NE 8 - 1014.4 - - - - - - - - -
21/12:30am 25.0 NE 9 - 1014.0 - - - - - - - - -
21/12:00am 25.3 NE 8 - 1014.6 - - - - - - - - -
 
Date/Time
WST
Temp

°C
Wind Pressure Rain
since 9am
mm
Weather Cloud Vis
km
Sea
Height
m
Swell
Dir
 
Speed
knots
Gust
knots
hPa Trend Height
m
Period
s
Dir
20/11:30pm 25.0 NE 9 - 1014.0 - - - - - - - - -
20/11:00pm 25.3 NE 9 - 1014.7 - - - - - - - - -
20/10:30pm 26.0 NE 9 - 1014.0 - - - - - - - - -
20/10:00pm 25.2 NE 10 - 1015.0 - - - - - - - - -
20/09:30pm 25.0 NE 10 - 1015.0 - - - - - - - - -
20/09:00pm 25.5 NE 9 - 1015.2 - - - - - - - - -
20/08:30pm 25.0 NE 10 - 1015.0 - - - - - - - - -
20/08:00pm 25.5 ENE 11 - 1014.8 - - - - - - - - -
20/07:30pm 26.0 ENE 9 - 1014.0 - - - - - - - - -
20/07:00pm 25.6 ENE 11 - 1014.5 - - - - - - - - -
20/06:30pm 26.0 ENE 10 - 1014.0 - - - - - - - - -
20/06:00pm 25.7 ENE 10 - 1013.9 - - - - - - - - -
20/05:30pm 26.0 NE 11 - 1013.0 - - - - - - - - -
20/05:00pm 26.1 ENE 11 - 1013.3 - - - - - - - - -
20/04:30pm 26.0 ENE 11 - 1013.0 - - - - - - - - -
20/04:00pm 26.4 ENE 13 - 1013.0 - - - - - - - - -
20/03:30pm 27.0 ENE 13 - 1013.0 - - - - - - - - -
20/03:00pm 26.8 ENE 13 - 1012.9 - - - - - - - - -
20/02:30pm 27.0 ENE 11 - 1012.0 - - - - - - - - -
20/02:00pm 27.4 E 11 - 1013.0 - - - - - - - - -
20/01:30pm 28.0 E 11 - 1013.0 - - - - - - - - -
20/01:00pm 27.5 E 11 - 1013.7 - - - - - - - - -
20/12:30pm 28.0 E 13 - 1014.0 - - - - - - - - -
20/12:00pm 27.9 E 12 - 1014.4 - - - - - - - - -
20/11:30am 28.0 ENE 13 - 1014.0 - - - - - - - - -
20/11:00am 27.7 ENE 13 - 1015.2 - - - - - - - - -
20/10:30am 28.0 ENE 14 - 1015.0 - - - - - - - - -
20/10:00am 27.8 ENE 15 - 1015.8 - - - - - - - - -
20/09:30am 28.0 ENE 15 - 1016.0 - - - - - - - - -
20/09:00am 27.2 ENE 16 - 1016.0 - - - - - - - - -
20/08:30am 27.0 ENE 15 - 1016.0 - - - - - - - - -
20/08:00am 26.6 ENE 15 - 1016.0 - - - - - - - - -
20/07:30am 27.0 ENE 15 - 1015.0 - - - - - - - - -
20/07:00am 26.4 ENE 15 - 1015.3 - - - - - - - - -
20/06:30am 26.0 ENE 15 - 1014.0 - - - - - - - - -
20/06:00am 26.1 ENE 16 - 1014.4 - - - - - - - - -
20/05:30am 26.0 NE 15 - 1014.0 - - - - - - - - -
20/05:00am 26.0 NE 16 - 1014.1 - - - - - - - - -
20/04:30am 26.0 ENE 15 - 1014.0 - - - - - - - - -
20/04:00am 25.8 NE 13 - 1014.1 - - - - - - - - -
20/03:30am 26.0 ENE 13 - 1014.0 - - - - - - - - -
20/03:00am 25.8 ENE 12 - 1014.1 - - - - - - - - -
20/02:30am 26.0 ENE 12 - 1014.0 - - - - - - - - -
20/02:00am 25.7 ENE 12 - 1014.1 - - - - - - - - -
20/01:30am 26.0 ENE 11 - 1014.0 - - - - - - - - -
20/01:00am 25.8 ENE 11 - 1014.4 - - - - - - - - -
20/12:30am 26.0 ENE 11 - 1014.0 - - - - - - - - -
20/12:00am 25.7 NE 11 - 1014.6 - - - - - - - - -
 
Date/Time
WST
Temp

°C
Wind Pressure Rain
since 9am
mm
Weather Cloud Vis
km
Sea
Height
m
Swell
Dir
 
Speed
knots
Gust
knots
hPa Trend Height
m
Period
s
Dir
19/11:30pm 26.0 NE 11 - 1014.0 - - - - - - - - -
19/11:00pm 25.5 NE 11 - 1014.5 - - - - - - - - -
19/10:30pm 26.0 NE 11 - 1014.0 - - - - - - - - -
19/10:00pm 25.7 NE 11 - 1014.6 - - - - - - - - -
19/09:30pm 26.0 NE 11 - 1014.0 - - - - - - - - -
19/09:00pm 25.5 NE 12 - 1014.3 - - - - - - - - -
19/08:30pm 26.0 NE 12 - 1014.0 - - - - - - - - -
19/08:00pm 25.5 NE 13 - 1014.0 - - - - - - - - -
19/07:30pm 26.0 ENE 14 - 1013.0 - - - - - - - - -

Other Formats:

Comma delimited format used in spreadsheet applications
http://www.bom.gov.au/fwo/IDW60701/IDW60701.94103.axf

JavaScript Object Notation format (JSON) in row-major order
http://www.bom.gov.au/fwo/IDW60701/IDW60701.94103.json